Bel Air, Maryland - USA


Today's Data File


9/3/26
Time         Wind Dir   Wind Spd  Wind Gust     Hum In   Humidity    Temp In       Temp  Raw Barom Wind Chill  Press Alt Cloud Base   Dens Alt Temp Out R  DailyRain   24HrRain   RainRate
                    �        mph        mph          %          %         �F         �F         in         �F         ft         ft         ft      �F/hr         in         in      in/hr
12:00am           194          0          0         44        100       73.8       71.9      29.48       71.9        410          0       1359      -0.08       0.00       0.31      0.000
12:01am           194          0          0         44        100       73.6       71.9      29.48       71.9        407          0       1356      -0.08       0.00       0.31      0.000
12:02am           195          0          0         44        100       73.6       71.9      29.48       71.9        408          0       1357      -0.08       0.00       0.31      0.000
12:03am           194          0          0         44        100       73.6       71.9      29.48       71.9        412          0       1362      -0.07       0.00       0.31      0.000
12:04am           194          0          0         44        100       73.6       71.8      29.47       71.8        415          0       1359      -0.17       0.00       0.31      0.000
12:05am           195          0          0         44        100       73.6       71.9      29.47       71.9        418          0       1368      -0.07       0.00       0.31      0.000
12:06am           194          0          0         44        100       73.6       71.8      29.47       71.8        418          0       1363      -0.17       0.00       0.31      0.000
12:07am           194          0          0         44        100       73.6       71.8      29.47       71.8        418          0       1363      -0.17       0.00       0.31      0.000
12:08am           195          0          0         44        100       73.6       71.9      29.47       71.9        418          0       1370      -0.06       0.00       0.31      0.000
12:09am           194          0          0         44        100       73.6       71.8      29.47       71.8        418          0       1363      -0.16       0.00       0.31      0.000
12:10am           195          0          0         44        100       73.6       71.9      29.47       71.9        418          0       1370      -0.06       0.00       0.31      0.000
12:11am           195          0          0         44        100       73.6       71.9      29.47       71.9        418          0       1370      -0.06       0.00       0.31      0.000
12:12am           194          0          0         44        100       73.6       71.9      29.47       71.9        418          0       1370      -0.06       0.00       0.31      0.000
12:13am           195          0          0         44        100       73.6       71.9      29.47       71.9        419          0       1371      -0.06       0.00       0.31      0.000
12:14am           194          0          0         44        100       73.6       72.0      29.47       72.0        419          0       1377       0.04       0.00       0.31      0.000
12:15am           195          0          0         44        100       73.6       72.0      29.47       72.0        418          0       1375       0.04       0.00       0.31      0.000
12:16am           195          0          0         44        100       73.6       71.9      29.47       71.9        417          0       1367      -0.06       0.00       0.31      0.000
12:17am           194          0          0         44        100       73.5       72.0      29.47       72.0        418          0       1376       0.04       0.00       0.31      0.000
12:18am           194          0          0         44        100       73.5       71.9      29.47       71.9        419          0       1371      -0.06       0.00       0.31      0.000
12:19am           195          0          0         44        100       73.5       71.9      29.47       71.9        419          0       1371      -0.06       0.00       0.31      0.000
12:20am           194          0          0         44        100       73.5       71.9      29.47       71.9        420          0       1372      -0.06       0.00       0.31      0.000
12:21am           195          0          0         44        100       73.5       72.0      29.47       72.0        420          0       1378       0.04       0.00       0.31      0.000
12:22am           195          0          0         44        100       73.5       71.9      29.47       71.9        420          0       1372      -0.06       0.00       0.31      0.000
12:23am           194          0          0         44        100       73.5       71.9      29.47       71.9        420          0       1372      -0.06       0.00       0.31      0.000
12:24am           195          0          0         44        100       73.5       71.9      29.47       71.9        421          0       1373      -0.06       0.00       0.31      0.000
12:25am           195          0          0         44        100       73.5       71.9      29.47       71.9        423          0       1375      -0.06       0.00       0.31      0.000
12:26am           195          0          0         44        100       73.5       71.9      29.46       71.9        424          0       1376      -0.06       0.00       0.31      0.000
12:27am           195          0          0         44        100       73.5       71.9      29.46       71.9        424          0       1376      -0.06       0.00       0.31      0.000
12:28am           194          0          0         44        100       73.5       72.0      29.47       72.0        423          0       1382       0.04       0.00       0.31      0.000
12:29am           195          0          0         44        100       73.5       72.0      29.47       72.0        422          0       1380       0.04       0.00       0.31      0.000
12:30am           195          0          0         44        100       73.5       72.0      29.47       72.0        420          0       1378       0.04       0.00       0.31      0.000
12:31am           195          0          0         44        100       73.5       71.9      29.47       71.9        420          0       1372      -0.06       0.00       0.31      0.000
12:32am           194          0          0         46        100       73.5       72.0      29.47       72.0        421          0       1379       0.04       0.00       0.31      0.000
12:33am           195          0          0         44        100       73.5       71.9      29.47       71.9        421          0       1373      -0.06       0.00       0.31      0.000
12:34am           195          0          0         44        100       73.5       71.9      29.47       71.9        422          0       1374      -0.06       0.00       0.31      0.000
12:35am           194          0          0         44        100       73.5       72.0      29.46       72.0        424          0       1383       0.04       0.00       0.31      0.000
12:36am           194          0          0         44        100       73.5       72.0      29.46       72.0        426          0       1385       0.04       0.00       0.31      0.000
12:37am           194          0          0         44        100       73.5       72.0      29.46       72.0        424          0       1383       0.04       0.00       0.31      0.000
12:38am           194          0          0         44        100       73.6       72.0      29.46       72.0        424          0       1383       0.04       0.00       0.31      0.000
12:39am           194          0          0         44        100       73.6       72.0      29.46       72.0        424          0       1383       0.04       0.00       0.31      0.000
12:40am           194          0          0         44        100       73.6       72.0      29.46       72.0        424          0       1383       0.04       0.00       0.31      0.000
12:41am           195          0          0         44        100       73.6       72.0      29.47       72.0        423          0       1382       0.04       0.00       0.31      0.000
12:42am           195          0          0         44        100       73.6       72.0      29.46       72.0        424          0       1383       0.04       0.00       0.31      0.000
12:43am           194          0          0         44        100       73.6       72.1      29.46       72.1        426          0       1391       0.14       0.00       0.31      0.000
12:44am           194          0          0         44        100       73.6       72.1      29.46       72.1        429          0       1395       0.14       0.00       0.31      0.000
12:45am           195          0          0         44        100       73.6       72.1      29.46       72.1        432          0       1399       0.14       0.00       0.31      0.000
12:46am           194          0          0         44        100       73.6       72.1      29.45       72.1        433          0       1400       0.13       0.00       0.31      0.000
12:47am           194          0          0         44        100       73.6       72.1      29.46       72.1        432          0       1399       0.13       0.00       0.31      0.000
12:48am           195          0          0         44        100       73.6       72.1      29.46       72.1        431          0       1398       0.13       0.00       0.31      0.000
12:49am           194          0          0         44        100       73.6       72.1      29.46       72.1        429          0       1396       0.13       0.00       0.31      0.000
12:50am           195          0          0         44        100       73.6       72.1      29.46       72.1        428          0       1394       0.13       0.00       0.31      0.000
12:51am           195          0          0         44        100       73.6       72.1      29.46       72.1        428          0       1394       0.12       0.00       0.31      0.000
12:52am           195          0          0         44        100       73.6       72.1      29.46       72.1        428          0       1394       0.12       0.00       0.31      0.000
12:53am           195          0          0         44        100       73.5       72.1      29.46       72.1        428          0       1394       0.12       0.00       0.31      0.000
12:54am           195          0          0         44        100       73.5       72.1      29.46       72.1        427          0       1392       0.12       0.00       0.31      0.000
12:55am           195          0          0         44        100       73.5       72.1      29.46       72.1        426          0       1391       0.12       0.00       0.31      0.000
12:56am           194          0          0         44        100       73.5       72.1      29.46       72.1        427          0       1392       0.12       0.00       0.30      0.000
12:57am           194          0          0         44        100       73.5       72.1      29.46       72.1        427          0       1392       0.11       0.00       0.30      0.000
12:58am           195          0          0         44        100       73.5       72.1      29.46       72.1        428          0       1394       0.11       0.00       0.30      0.000
12:59am           195          0          0         44        100       73.5       72.1      29.46       72.1        431          0       1398       0.11       0.00       0.30      0.000
1:00am            195          0          0         44        100       73.5       72.1      29.46       72.1        432          0       1399       0.11       0.00       0.30      0.000
1:01am            195          0          0         44        100       73.5       72.1      29.45       72.1        433          0       1400       0.11       0.00       0.30      0.000
1:02am            194          0          0         44        100       73.5       72.1      29.45       72.1        433          0       1400       0.10       0.00       0.30      0.000
1:03am            195          0          0         44        100       73.5       72.1      29.45       72.1        433          0       1400       0.10       0.00       0.30      0.000
1:04am            195          0          0         44        100       73.5       72.1      29.45       72.1        434          0       1401       0.10       0.00       0.30      0.000
1:05am            195          0          0         44        100       73.5       72.0      29.45       72.0        434          0       1395       0.00       0.00       0.30      0.000
1:06am            195          0          0         44        100       73.5       72.0      29.45       72.0        434          0       1395       0.00       0.00       0.30      0.000
1:07am            194          0          0         44        100       73.5       72.1      29.45       72.1        434          0       1401       0.10       0.00       0.30      0.000
1:08am            195          0          0         44        100       73.5       72.1      29.45       72.1        434          0       1401       0.10       0.00       0.30      0.000
1:09am            195          0          0         44        100       73.5       72.1      29.45       72.1        433          0       1400       0.10       0.00       0.30      0.000
1:10am            195          0          0         44        100       73.5       72.1      29.46       72.1        431          0       1398       0.09       0.00       0.30      0.000
1:11am            195          0          0         44        100       73.5       72.1      29.46       72.1        430          0       1397       0.09       0.00       0.30      0.000
1:12am            195          0          0         44        100       73.5       72.1      29.46       72.1        432          0       1399       0.09       0.00       0.30      0.000
1:13am            195          0          0         44        100       73.5       72.1      29.45       72.1        433          0       1400       0.09       0.00       0.30      0.000
1:14am            195          0          0         44        100       73.5       72.1      29.45       72.1        433          0       1400       0.09       0.00       0.30      0.000
1:15am            195          0          0         44        100       73.5       72.2      29.46       72.2        431          0       1404       0.19       0.00       0.30      0.000
1:16am            195          0          0         44        100       73.5       72.1      29.46       72.1        429          0       1396       0.08       0.00       0.30      0.000
1:17am            195          0          0         44        100       73.5       72.2      29.46       72.2        428          0       1400       0.18       0.00       0.30      0.000
1:18am            195          0          0         44        100       73.5       72.2      29.46       72.2        427          0       1399       0.18       0.00       0.30      0.000
1:19am            195          0          0         44        100       73.5       72.2      29.46       72.2        428          0       1400       0.18       0.00       0.30      0.000
1:20am            195          0          0         44        100       73.5       72.2      29.46       72.2        429          0       1402       0.17       0.00       0.30      0.000
1:21am            195          0          0         44        100       73.5       72.2      29.46       72.2        431          0       1404       0.17       0.00       0.30      0.000
1:22am            195          0          0         44        100       73.5       72.2      29.46       72.2        431          0       1404       0.17       0.00       0.30      0.000
1:23am            195          0          0         44        100       73.5       72.3      29.46       72.3        431          0       1411       0.26       0.00       0.30      0.000
1:24am            195          0          0         44        100       73.5       72.3      29.46       72.3        431          0       1411       0.26       0.00       0.30      0.000
1:25am            195          0          0         44        100       73.5       72.3      29.46       72.3        432          0       1412       0.25       0.00       0.30      0.000
1:26am            195          0          0         44        100       73.5       72.4      29.45       72.4        433          0       1419       0.35       0.00       0.30      0.000
1:27am            195          0          0         44        100       73.5       72.4      29.45       72.4        434          0       1421       0.34       0.00       0.30      0.000
1:28am            194          0          0         44        100       73.6       72.4      29.45       72.4        434          0       1421       0.34       0.00       0.30      0.000
1:29am            195          0          0         44        100       73.5       72.4      29.45       72.4        434          0       1421       0.33       0.00       0.30      0.000
1:30am            195          0          0         44        100       73.5       72.4      29.45       72.4        435          0       1422       0.33       0.00       0.30      0.000
1:31am            195          0          0         44        100       73.5       72.5      29.45       72.5        435          0       1428       0.42       0.00       0.30      0.000
1:32am            195          0          0         44        100       73.5       72.5      29.45       72.5        435          0       1428       0.42       0.00       0.30      0.000
1:33am            194          0          0         44        100       73.5       72.5      29.45       72.5        435          0       1428       0.41       0.00       0.30      0.000
1:34am            195          0          0         44        100       73.5       72.5      29.45       72.5        435          0       1428       0.40       0.00       0.30      0.000
1:35am            195          0          0         44        100       73.5       72.5      29.45       72.5        435          0       1428       0.39       0.00       0.30      0.000
1:36am            195          0          0         44        100       73.5       72.5      29.45       72.5        434          0       1427       0.39       0.00       0.30      0.000
1:37am            195          0          0         44        100       73.5       72.5      29.45       72.5        434          0       1427       0.38       0.00       0.30      0.000
1:38am            195          0          0         44        100       73.5       72.5      29.45       72.5        434          0       1427       0.38       0.00       0.30      0.000
1:39am            194          0          0         44        100       73.5       72.5      29.45       72.5        434          0       1427       0.37       0.00       0.30      0.000
1:40am            195          0          0         44        100       73.5       72.5      29.45       72.5        434          0       1427       0.36       0.00       0.30      0.000
1:41am            194          0          0         44        100       73.5       72.5      29.45       72.5        434          0       1427       0.36       0.00       0.30      0.000
1:42am            195          0          0         44        100       73.5       72.5      29.45       72.5        434          0       1427       0.35       0.00       0.30      0.000
1:43am            195          0          0         44        100       73.5       72.5      29.45       72.5        434          0       1427       0.34       0.00       0.30      0.000
1:44am            194          0          0         44        100       73.3       72.5      29.45       72.5        434          0       1427       0.34       0.00       0.30      0.000
1:45am            195          0          0         44        100       73.3       72.5      29.45       72.5        433          0       1426       0.33       0.00       0.30      0.000
1:46am            195          0          0         44        100       73.3       72.5      29.45       72.5        433          0       1426       0.33       0.00       0.30      0.000
1:47am            195          0          0         44        100       73.3       72.6      29.46       72.6        432          0       1431       0.42       0.00       0.30      0.000
1:48am            195          0          0         44        100       73.3       72.5      29.46       72.5        431          0       1424       0.32       0.00       0.30      0.000
1:49am            195          0          0         44        100       73.3       72.6      29.46       72.6        431          0       1430       0.41       0.00       0.30      0.000
1:50am            195          0          0         44        100       73.3       72.5      29.46       72.5        431          0       1424       0.30       0.00       0.30      0.000
1:51am            195          0          0         44        100       73.5       72.5      29.46       72.5        431          0       1424       0.30       0.00       0.30      0.000
1:52am            194          0          0         44        100       73.5       72.6      29.46       72.6        431          0       1430       0.39       0.00       0.30      0.000
1:53am            194          0          0         44        100       73.5       72.6      29.46       72.6        430          0       1429       0.39       0.00       0.30      0.000
1:54am            195          0          0         44        100       73.5       72.6      29.46       72.6        429          0       1426       0.38       0.00       0.30      0.000
1:55am            195          0          0         44        100       73.5       72.6      29.46       72.6        426          0       1423       0.37       0.00       0.30      0.000
1:56am            195          0          0         44        100       73.5       72.6      29.47       72.6        423          0       1420       0.37       0.00       0.30      0.000
1:57am            195          0          0         44        100       73.5       72.6      29.47       72.6        421          0       1417       0.36       0.00       0.30      0.000
1:58am            195          0          0         44        100       73.5       72.6      29.47       72.6        420          0       1416       0.36       0.00       0.30      0.000
1:59am            194          0          0         44        100       73.5       72.6      29.47       72.6        420          0       1416       0.35       0.00       0.30      0.000
2:00am            194          0          0         44        100       73.5       72.6      29.47       72.6        419          0       1415       0.34       0.00       0.30      0.000
2:01am            194          0          0         44        100       73.5       72.6      29.47       72.6        419          0       1415       0.34       0.00       0.30      0.000
2:02am            195          0          0         44        100       73.5       72.7      29.47       72.7        419          0       1422       0.43       0.00       0.30      0.000
2:03am            195          0          0         44        100       73.5       72.6      29.47       72.6        420          0       1416       0.33       0.00       0.30      0.000
2:04am            180          1          1         44        100       73.5       72.6      29.47       72.6        420          0       1416       0.32       0.00       0.30      0.000
2:05am             70          1          3         44        100       73.5       72.6      29.47       72.6        420          0       1416       0.32       0.00       0.30      0.000
2:06am             79          4          4         44        100       73.5       72.6      29.47       72.6        421          0       1417       0.31       0.00       0.30      0.000
2:07am             33          1          4         44        100       73.5       72.6      29.47       72.6        421          0       1417       0.31       0.00       0.30      0.000
2:08am             33          1          5         44        100       73.5       72.6      29.47       72.6        421          0       1417       0.30       0.00       0.30      0.000
2:09am             35          2          5         44        100       73.5       72.6      29.47       72.6        421          0       1417       0.30       0.00       0.30      0.000
2:10am             35          1          5         44        100       73.5       72.6      29.47       72.6        422          0       1419       0.29       0.00       0.30      0.000
2:11am             25          3          5         44        100       73.5       72.5      29.47       72.5        421          0       1411       0.19       0.00       0.30      0.000
2:12am             27          0          5         44        100       73.5       72.5      29.47       72.5        421          0       1411       0.18       0.00       0.30      0.000
2:13am             27          1          5         44        100       73.5       72.5      29.47       72.5        422          0       1412       0.18       0.00       0.30      0.000
2:14am             28          1          5         44        100       73.5       72.5      29.47       72.5        422          0       1412       0.18       0.00       0.30      0.000
2:15am             28          0          5         44        100       73.5       72.5      29.47       72.5        422          0       1412       0.18       0.00       0.30      0.000
2:16am             28          0          1         44        100       73.5       72.5      29.47       72.5        422          0       1412       0.17       0.00       0.30      0.000
2:17am             28          1          2         44        100       73.5       72.5      29.47       72.5        422          0       1412       0.17       0.00       0.30      0.000

Data provided from:  Mark Hofmann's Bel Air, MD Weather Station